{"data":{"norad_id":63653,"epoch":"2026-05-25T02:54:45.915264Z","epoch_age_seconds":60709,"freshness":"FRESH","line1":"1 63653U 25083V   26145.12136476  .00019558  00000+0  71827-3 0  9994","line2":"2 63653  43.0015 293.7724 0001448 282.4742  77.5948 15.27583568 61780","mean_motion":15.27583568,"eccentricity":0.0001448,"inclination_deg":43.0015,"raan_deg":293.7724,"arg_perigee_deg":282.4742,"mean_anomaly_deg":77.5948,"bstar":0.00071827,"rev_number":6178,"period_min":94.266528533384,"perigee_km":482.04491398518,"apogee_km":484.03191038455,"semimajor_km":6861.1754121849,"source":"CELESTRAK","updated_at":"2026-05-25T13:38:20.056056Z"}}